2020-08-10 14:31:49 r, 00.00m,0000593103Hz,0000000000c,0000000.000s, 050.6C,00002191
2020-08-10 14:41:49 r, 00.00m,0000593053Hz,0000000000c,0000000.000s, 050.6C,00002191
2020-08-10 14:51:50 r, 00.00m,0000593112Hz,0000000000c,0000000.000s, 050.6C,00002191
2020-08-10 15:01:52 r, 00.00m,0000593179Hz,0000000000c,0000000.000s, 050.6C,00002191
2020-08-10 15:11:49 r, 00.00m,0000593174Hz,0000000000c,0000000.000s, 050.6C,00002191
2020-08-10 15:21:51 r, 00.00m,0000593241Hz,0000000000c,0000000.000s, 050.2C,00002191
2020-08-10 15:31:50 r, 00.00m,0000593178Hz,0000000000c,0000000.000s, 050.2C,00002191
2020-08-10 15:41:49 r, 00.00m,0000593261Hz,0000000000c,0000000.000s, 049.9C,00002191
2020-08-10 15:51:52 r, 00.00m,0000593259Hz,0000000000c,0000000.000s, 049.9C,00002191
2020-08-10 16:01:50 r, 00.00m,0000593311Hz,0000000000c,0000000.000s, 049.9C,00002191
2020-08-10 16:11:50 r, 00.00m,0000593279Hz,0000000000c,0000000.000s, 049.3C,00002191
2020-08-10 16:21:52 r, 00.00m,0000593371Hz,0000000000c,0000000.000s, 048.9C,00002191
2020-08-10 16:31:50 r, 00.00m,0000593454Hz,0000000000c,0000000.000s, 048.6C,00002191
2020-08-10 16:41:49 r, 00.00m,0000593497Hz,0000000000c,0000000.000s, 048.6C,00002191
2020-08-10 16:51:50 r, 00.00m,0000593555Hz,0000000000c,0000000.000s, 048.0C,00002191
2020-08-10 17:01:51 r, 00.00m,0000593590Hz,0000000000c,0000000.000s, 048.0C,00002191
2020-08-10 17:11:49 r, 00.00m,0000593696Hz,0000000000c,0000000.000s, 047.3C,00002191
2020-08-10 17:21:51 r, 00.00m,0000593791Hz,0000000000c,0000000.000s, 046.7C,00002191
2020-08-10 17:31:50 r, 00.00m,0000593913Hz,0000000000c,0000000.000s, 046.4C,00002191
2020-08-10 17:41:49 r, 00.00m,0000593952Hz,0000000000c,0000000.000s, 045.4C,00002191
2020-08-10 17:51:52 r, 00.00m,0000594052Hz,0000000000c,0000000.000s, 045.1C,00002191
2020-08-10 18:01:50 r, 00.00m,0000594004Hz,0000000000c,0000000.000s, 044.4C,00002191
2020-08-10 18:11:50 r, 00.00m,0000594283Hz,0000000000c,0000000.000s, 044.1C,00002191
2020-08-10 18:21:52 r, 00.00m,0000594214Hz,0000000000c,0000000.000s, 043.5C,00002191
2020-08-10 18:31:50 r, 00.00m,0000594316Hz,0000000000c,0000000.000s, 043.1C,00002191
2020-08-10 18:41:50 r, 00.00m,0000594409Hz,0000000000c,0000000.000s, 042.5C,00002191
2020-08-10 18:51:50 r, 00.00m,0000594562Hz,0000000000c,0000000.000s, 042.2C,00002191
2020-08-10 19:01:51 r, 00.00m,0000594540Hz,0000000000c,0000000.000s, 041.5C,00002191
2020-08-10 19:11:50 r, 00.00m,0000594698Hz,0000000000c,0000000.000s, 041.2C,00002191
2020-08-10 19:21:50 r, 00.00m,0000594777Hz,0000000000c,0000000.000s, 040.6C,00002191
2020-08-10 19:31:52 r, 00.00m,0000534214Hz,0000000000c,0000000.000s, 039.3C,00002191
2020-08-10 19:41:50 r, 00.00m,0000595177Hz,0000000000c,0000000.000s, 038.0C,00002191
2020-08-10 19:51:50 r, 00.00m,0000595129Hz,0000000000c,0000000.000s, 037.7C,00002191
2020-08-10 20:01:52 r, 00.00m,0000509369Hz,0000000000c,0000000.000s, 037.0C,00002191
2020-08-10 20:11:50 r, 05.89m,0000370837Hz,0000000000c,0000000.000s, 036.4C,00002191
2020-08-10 20:21:50 r, 06.23m,0000273567Hz,0000000000c,0000000.000s, 035.4C,00002191
2020-08-10 20:31:50 r, 06.61m,0000191210Hz,0000000000c,0000000.000s, 034.4C,00002191
2020-08-10 20:41:50 r, 06.91m,0000145644Hz,0000000000c,0000000.000s, 033.5C,00002191
2020-08-10 20:51:50 r, 07.82m,0000063166Hz,0000000000c,0000000.000s, 032.8C,00002191
2020-08-10 21:01:51 r, 08.91m,0000023033Hz,0000000000c,0000000.000s, 032.2C,00002191
2020-08-10 21:11:50 r, 10.34m,0000006204Hz,0000000000c,0000000.000s, 031.9C,00002191
2020-08-10 21:21:50 r, 12.03m,0000001311Hz,0000000000c,0000000.000s, 031.2C,00002191
2020-08-10 21:31:52 r, 13.89m,0000000235Hz,0000000000c,0000000.000s, 030.9C,00002191
2020-08-10 21:41:50 r, 15.52m,0000000052Hz,0000008943c,0000000.019s, 030.6C,00002191
2020-08-10 21:51:50 r, 17.23m,0000000011Hz,0000042850c,0000000.093s, 030.6C,00002191
2020-08-10 22:01:52 r, 18.33m,0000000004Hz,0000117737c,0000000.256s, 030.2C,00002191
2020-08-10 22:11:50 r, 19.49m,0000000002Hz,0000342531c,0000000.743s, 030.2C,00002191
2020-08-10 22:21:50 r, 20.22m,0000000001Hz,0000668339c,0000001.450s, 030.2C,00002191
2020-08-10 22:31:51 r, 20.63m,0000000000Hz,0000975143c,0000002.116s, 029.9C,00002191
2020-08-10 22:41:50 r, 20.87m,0000000001Hz,0001208300c,0000002.622s, 029.9C,00002191
2020-08-10 22:51:50 r, 20.97m,0000000000Hz,0001319282c,0000002.863s, 029.6C,00002191
2020-08-10 23:01:50 r, 20.99m,0000000000Hz,0001343755c,0000002.916s, 029.3C,00002191
2020-08-10 23:11:50 r, 21.02m,0000000000Hz,0001390516c,0000003.018s, 029.3C,00002191
2020-08-10 23:21:50 r, 21.02m,0000000001Hz,0001382130c,0000002.999s, 029.0C,00002191
2020-08-10 23:31:51 r, 21.03m,0000000001Hz,0001395111c,0000003.028s, 028.6C,00002191
2020-08-10 23:41:50 r, 21.03m,0000000000Hz,0001400505c,0000003.039s, 028.6C,00002191
2020-08-10 23:51:50 r, 21.02m,0000000000Hz,0001392184c,0000003.021s, 028.3C,00002191
